Tracking 28915 objects as of 30-May-2024
HD Live streaming from Space Station
objects crossing your sky now

OBJECT H

Track OBJECT H now!
10-day predictions
OBJECT H is classified as:


NORAD ID: 57173
Int'l Code: 2023-091H
Perigee: 538.8 km
Apogee: 560.0 km
Inclination: 97.6 °
Period: 95.5 minutes
Semi major axis: 6920 km
RCS: Unknown
Launch date: June 27, 2023
Source: (TBD)
Launch site: VOSTOCHNY COSMODROME (VOSTO)

Uplink (MHz):
Downlink (MHz): 437.400
Beacon (MHz): 437.400
Mode: 1k2*/2k4 FSK CW
Call sign: RS36S
Status: Active

Your satellite tracking list
Your tracking list is empty




NASA's NSSDC Master Catalog

Two Line Element Set (TLE):
1 57173U 23091H   24151.21152112  .00007060  00000-0  46152-3 0  9990
2 57173  97.6130 203.4382 0015316 186.5085 173.5946 15.08012602 50782
Source of the keplerian elements: AFSPC